Location: Goettingen
(51.5300°N, 9.9433°E)
Time: 20:04:28
(UTC+02:00)

ISS - Pass Details

Date: 21 July 2019
Orbit: 409 x 418 km, 51.6° (Epoch: 20 July)

Event Time Altitude Azimuth Distance (km) Brightness Sun altitude
Rises 00:36:51 0° 274° (W) 2,352 0.3 -17.1°
Reaches altitude 10° 00:38:57 10° 274° (W) 1,487 -0.8 -17.1°
Maximum altitude 00:42:17 88° 358° (N) 419 -3.9 -17.2°
Enters shadow 00:45:17 12° 94° (E) 1,343 -1.3 -17.3°
